Location: Home
(42.5358°N, 72.7383°W)
Time: 18:48:23
(UTC-05:00)

Transit 4A - Pass Details

Date: 05 December 2021
Orbit: 863 x 981 km, 66.8° (Epoch: 23 January)

Event Time Altitude Azimuth Distance (km) Brightness Sun altitude
Rises 18:38:04 0° 207° (SSW) 3,443 11.4 -25.1°
Reaches altitude 10° 18:40:30 10° 207° (SSW) 2,518 10.6 -25.5°
Maximum altitude 18:46:20 86° 120° (ESE) 897 7.7 -26.6°
Enters shadow 18:47:07 69° 39° (NE) 954 7.7 -26.7°
Drops below altitude 10° 18:52:22 10° 31° (NNE) 2,603 - -27.7°
Sets 18:54:56 0° 32° (NNE) 3,567 - -28.2°
